Regional Weather Roundup
Issued by NWS

Home | Current Version | Previous Version | Text Only | Print | Product List | Glossary On
Versions: 1 2 3 4 5 6 7 8 9 10 11 12 13 14 15 16 17 18 19 20 21 22 23 24 25 26 27
000
ASUS45 KPSR 231210
RWRAZ

ARIZONA HOURLY REGIONAL WEATHER ROUNDUP
NATIONAL WEATHER SERVICE PHOENIX AZ
500 AM MST THU MAR 23 2017

NOTE: FAIR INDICATES FEW OR NO CLOUDS BELOW 12,000 FEET WITH NO
SIGNIFICANT WEATHER AND/OR OBSTRUCTIONS TO VISIBILITY.

AZZ001>003-036-231300-
NORTHWEST ARIZONA

CITY           SKY/WX    TMP DP  RH WIND       PRES   REMARKS
BULLHEAD CITY  MOCLDY    57  36  44 S12G18    29.83R
KINGMAN        PTCLDY    44  28  53 SW12      29.85R
6HR MIN TEMP:  41; 6HR MAX TEMP:  50;

$$

AZZ004>008-015-016-018-231300-
NORTH CENTRAL ARIZONA

CITY           SKY/WX    TMP DP  RH WIND       PRES   REMARKS
GRAND CANYON   CLOUDY    33  32  96 S7        29.85F WCI  27
6HR MIN TEMP:  32; 6HR MAX TEMP:  34; 6HR PCP:  0.08;

WILLIAMS       LGT SNOW  32  32 100 S5        29.86R WCI  27
PRESCOTT       MOCLDY    37  37 100 S5        29.87S WCI  33
6HR MIN TEMP:  37; 6HR MAX TEMP:  40; 6HR PCP:  0.28;

FLAGSTAFF      LGT SNOW  30  30 100 SW3       29.86F VSB 3/4
6HR MIN TEMP:  30; 6HR MAX TEMP:  33; 6HR PCP:  0.66;

PAYSON         MOCLDY    39  37  93 W14       29.92R WCI  31
PAGE           LGT RAIN  45  50 100 S13       29.80R
6HR MIN TEMP:  44; 6HR MAX TEMP:  48; 6HR PCP:  0.06;

$$

AZZ009>014-017-231300-
NORTHEAST ARIZONA

CITY           SKY/WX    TMP DP  RH WIND       PRES   REMARKS
WINSLOW        LGT RAIN  42  39  89 N3        29.87S
6HR MIN TEMP:  42; 6HR MAX TEMP:  50; 6HR PCP:  0.03;

SAINT JOHNS    CLEAR     48  35  60 SW16      29.86S
6HR MIN TEMP:  47; 6HR MAX TEMP:  57;

WINDOW ROCK    CLEAR     43  33  68 S8        29.87F
6HR MIN TEMP:  42; 6HR MAX TEMP:  51;

SHOW LOW       MOCLDY    41  36  81 S14       29.88F
$$

AZZ023-231300-
GREATER PHOENIX AREA

CITY           SKY/WX    TMP DP  RH WIND       PRES   REMARKS
PHOENIX        CLOUDY    55  47  74 N9        29.86S
6HR MIN TEMP:  54; 6HR MAX TEMP:  64; 6HR PCP:  0.06;

BUCKEYE        CLOUDY    54  54 100 CALM      29.88S
LUKE AFB       CLOUDY    54  52  92 NE5       29.87R
6HR MIN TEMP:  54; 6HR MAX TEMP:  63; 6HR PCP:  0.07;

DEER VALLEY    LGT RAIN  52  49  89 E5        29.88F
6HR MIN TEMP:  52; 6HR MAX TEMP:  62; 6HR PCP:  0.04;

SCOTTSDALE     LGT RAIN  54  46  74 N3        29.91R
6HR MIN TEMP:  53; 6HR MAX TEMP:  62; 6HR PCP:  0.04;

MESA-GATEWAY   LGT RAIN  52  48  87 NE9       29.91R
$$

AZZ027-028-231300-
SOUTHWEST MARICOPA COUNTY AND PINAL COUNTY

CITY           SKY/WX    TMP DP  RH WIND       PRES   REMARKS
CASA GRANDE    NOT AVBL
GILA BEND      FAIR      55  50  82 SW7       29.88S
6HR MIN TEMP:  55; 6HR MAX TEMP:  64; 6HR PCP: TRACE;

$$

AZZ503-504-507>509-231300-
SOUTHEAST ARIZONA

CITY           SKY/WX    TMP DP  RH WIND       PRES   REMARKS
TUCSON         MOCLDY    60  45  57 W8G24     29.89R
6HR MIN TEMP:  60; 6HR MAX TEMP:  69;

DAVIS-MONTHAN  PTCLDY    60  45  59 SW15G21   29.87R
6HR MIN TEMP:  60; 6HR MAX TEMP:  67;

NOGALES        CLEAR     53  44  71 SW12      29.91S
6HR MIN TEMP:  53; 6HR MAX TEMP:  60;

SIERRA VISTA   CLEAR     53  40  61 SW13      29.92S
6HR MIN TEMP:  53; 6HR MAX TEMP:  62;

DOUGLAS        CLEAR     55  37  50 SW13      29.90S
6HR MIN TEMP:  52; 6HR MAX TEMP:  63;

SAFFORD        CLEAR     58  41  53 N6        29.82S
6HR MIN TEMP:  58; 6HR MAX TEMP:  66;

$$

AZZ020-021-025-026-031-231300-
SOUTHWEST ARIZONA

CITY           SKY/WX    TMP DP  RH WIND       PRES   REMARKS
YUMA           CLEAR     58  42  55 NW13      29.92R
6HR MIN TEMP:  55; 6HR MAX TEMP:  60;

$$

CAZ031-033-041-043-047-048-061-231300-
SOUTHERN CALIFORNIA

CITY           SKY/WX    TMP DP  RH WIND       PRES   REMARKS
DOWNTOWN L.A.  PTCLDY    56  41  57 CALM      30.00R
6HR MIN TEMP:  54; 6HR MAX TEMP:  58;

L.A. AIRPORT   PTCLDY    56  42  59 NW7       30.02R
6HR MIN TEMP:  54; 6HR MAX TEMP:  59;

SAN DIEGO      MOCLDY    58  47  66 W14       30.07S
6HR MIN TEMP:  58; 6HR MAX TEMP:  60;

BURBANK        PTCLDY    54  36  50 N15       30.00R
6HR MIN TEMP:  51; 6HR MAX TEMP:  55;

ONTARIO        MOCLDY    51  47  86 VRB3      30.00R
6HR MIN TEMP:  51; 6HR MAX TEMP:  55;

RIVERSIDE      MOCLDY    51  47  86 CALM      30.00S
6HR MIN TEMP:  49; 6HR MAX TEMP:  54;

PALM SPRINGS   CLEAR     60  34  37 S12       29.91R
6HR MIN TEMP:  59; 6HR MAX TEMP:  65;

EL CENTRO NAS  PTCLDY    59  36  42 W22       29.95R
6HR MIN TEMP:  58; 6HR MAX TEMP:  62;

IMPERIAL       CLEAR     58  40  51 W17G29    29.92R
6HR MIN TEMP:  56; 6HR MAX TEMP:  61;

BLYTHE         CLEAR     54  42  64 NW7       29.89R
6HR MIN TEMP:  53; 6HR MAX TEMP:  64;

NEEDLES        CLOUDY    60  34  37 VRB3      29.84S
6HR MIN TEMP:  59; 6HR MAX TEMP:  66; 6HR PCP: TRACE;

$$

NVZ020-UTZ003-231300-
SOUTHERN NEVADA-UTAH

CITY           SKY/WX    TMP DP  RH WIND       PRES   REMARKS
LAS VEGAS      MOCLDY    53  27  36 S5        29.78R
6HR MIN TEMP:  53; 6HR MAX TEMP:  58;

SALT LAKE CITY RAIN      41  37  86 SE5       29.75R
6HR MIN TEMP:  41; 6HR MAX TEMP:  51; 6HR PCP:  1.09;

$$

NMZ009-TXZ055-231300-
NEW MEXICO-WEST TEXAS

CITY           SKY/WX    TMP DP  RH WIND       PRES   REMARKS
ALBUQUERQUE    CLEAR     56  14  19 S12       29.85S
6HR MIN TEMP:  54; 6HR MAX TEMP:  64;

EL PASO        PTCLDY    66  13  12 S9        29.88R
6HR MIN TEMP:  64; 6HR MAX TEMP:  77;

$$


........................KEY........................
SKY/WX - SKY CONDITION/WEATHER
TMP    - TEMPERATURE IN FAHRENHEIT
DP     - DEW POINT IN FAHRENHEIT
RH     - RELATIVE HUMIDITY IN PERCENT
WIND   - DIRECTION AND SPEED IN MILES PER HOUR (MPH)
VRB    - VARIABLE WIND DIRECTION
PRES   - MEAN SEA LEVEL PRESSURE IN INCHES OF MERCURY
         F - FALLING PRESSURE   R - RISING PRESSURE
         S - STEADY PRESSURE
VSB    - VISIBILITY IN MILES
HX     - HEAT INDEX IN FAHRENHEIT
WCI    - WIND CHILL INDEX IN FAHRENHEIT
TC     - TEMPERATURE IN CELSIUS WHICH IS ALSO KNOWN AS
         TEMPERATURE IN CENTIGRADE
AFB    - AIR FORCE BASE
         LUKE AFB IS LUKE AIR FORCE BASE
         DAVIS-MONTHAN IS DAVIS-MONTHAN AIR FORCE BASE
NAS    - NAVAL AIR STATION
         EL CENTRO NAS IS EL CENTRO NAVAL AIR STATION
N/A    - NOT AVAILABLE





USA.gov is the U.S. government's official web portal to all federal, state and local government web resources and services.